This is the latest recevied weather packets stored in our database for station/object KJ7HSW. If no packets are shown the sender has not sent any weather packets the latest 10 day(s).
| Time | Temp. | Humidity | Pressure | Rain* | Wind** | Luminosity | Snow |
|---|---|---|---|---|---|---|---|
| 1778010701 | 21.11° C | 62% | 1014.4 hPa | 0 mm | - | 838 W/m² | - |
| 1778010398 | 21.11° C | 62% | 1014.5 hPa | 0 mm | - | 837 W/m² | - |
| 1778010094 | 20.56° C | 62% | 1014.6 hPa | 0 mm | - | 836 W/m² | - |
| 1778009791 | 20.56° C | 63% | 1014.6 hPa | 0 mm | - | 836 W/m² | - |
| 1778009488 | 20.56° C | 63% | 1014.5 hPa | 0 mm | - | 833 W/m² | - |
| 1778009186 | 20.56° C | 63% | 1014.6 hPa | 0 mm | - | 827 W/m² | - |
| 1778008883 | 21.11° C | 62% | 1014.5 hPa | 0 mm | - | 826 W/m² | - |
| 1778008582 | 20.56° C | 63% | 1014.3 hPa | 0 mm | - | 823 W/m² | - |
| 1778008280 | 20.56° C | 62% | 1014.6 hPa | 0 mm | - | 818 W/m² | - |
| 1778007975 | 20.56° C | 61% | 1014.5 hPa | 0 mm | - | 816 W/m² | - |
| 1778007670 | 21.11° C | 60% | 1014.5 hPa | 0 mm | - | 809 W/m² | - |
| 1778007368 | 20.56° C | 62% | 1014.5 hPa | 0 mm | - | 808 W/m² | - |
| 1778007064 | 20.56° C | 64% | 1014.5 hPa | 0 mm | - | 804 W/m² | - |
| 1778006760 | 20.56° C | 62% | 1014.5 hPa | 0 mm | - | 803 W/m² | - |
| 1778006457 | 20.56° C | 61% | 1014.5 hPa | 0 mm | - | 794 W/m² | - |
| 1778006154 | 20° C | 63% | 1014.5 hPa | 0 mm | - | 792 W/m² | - |
| 1778005851 | 20° C | 60% | 1014.6 hPa | 0 mm | - | 785 W/m² | - |
| 1778005547 | 20.56° C | 59% | 1014.6 hPa | 0 mm | - | 778 W/m² | - |
| 1778005244 | 20.56° C | 58% | 1014.5 hPa | 0 mm | - | 767 W/m² | - |
| 1778004941 | 20.56° C | 58% | 1014.7 hPa | 0 mm | - | 762 W/m² | - |
| 1778004638 | 20.56° C | 58% | 1014.6 hPa | 0 mm | - | 754 W/m² | - |
| 1778004334 | 20.56° C | 57% | 1014.6 hPa | 0 mm | - | 745 W/m² | - |
| 1778004033 | 20.56° C | 57% | 1014.7 hPa | 0 mm | - | 736 W/m² | - |
| 1778003732 | 20° C | 57% | 1014.7 hPa | 0 mm | - | 729 W/m² | - |
| 1778003429 | 20° C | 59% | 1014.6 hPa | 0 mm | - | 717 W/m² | - |
* Rain latest hour (hover to see other rain measurements)
** Current wind speed in m/s (hover to see current wind gust speed)